This demonstration page uses our WeatherBlox Daily Observations layout. Learn more.

Hourly Observations for April 4, 2018

Temp ( °F °C ) Dew Point ( °F °C ) Humidity (%) Winds ( mph kmh ) Pressure ( in mb ) Visibility ( mi km ) Precip ( " mm )
12:15 am 00:15 Clear 20 -6.5 16 -9.1 82 82 NNE 5 7 30.39 1029 10 16.0934 0 0
12:35 am 00:35 Clear 20 -6.7 16 -9.1 83 83 N 8 13 30.39 1029 10 16.0934 0 0
12:55 am 00:55 Clear 20 -6.6 16 -9.1 83 83 Calm 30.39 1029 10 16.0934 0 0
1:15 am 01:15 Clear 19 -7.5 15 -9.5 86 86 WNW 3 6 30.45 1031 10 16.0934 0 0
1:35 am 01:35 Clear 19 -7.3 14 -9.8 83 83 W 3 6 30.45 1031 10 16.0934 0 0
1:50 am 01:50 Clear 19 -7.2 15 -9.5 84 84 W 5 7 30.45 1031 10 16.0934 0 0
2:15 am 02:15 Clear 18 -7.6 15 -9.5 86 86 W 5 7 30.45 1031 10 16.0934 0 0
2:35 am 02:35 Clear 18 -7.7 15 -9.7 86 86 Calm 30.45 1031 10 16.0934 0 0
2:55 am 02:55 Clear 18 -7.8 15 -9.7 86 86 Calm 30.45 1031 10 16.0934 0 0
3:15 am 03:15 Clear 16 -8.9 13 -10.5 88 88 NNE 7 11 30.42 1030 10 16.0934 0 0
3:35 am 03:35 Clear 17 -8.2 14 -10 87 87 SW 3 6 30.45 1031 10 16.0934 0 0
3:55 am 03:55 Clear 17 -8.3 13 -10.4 85 85 Calm 30.42 1030 10 16.0934 0 0
4:15 am 04:15 Clear 15 -9.5 11 -11.6 85 85 NE 3 6 30.42 1030 10 16.0934 0 0
4:35 am 04:35 Clear 17 -8.4 14 -9.9 89 89 Calm 30.42 1030 10 16.0934 0 0
4:55 am 04:55 Clear 19 -7.5 15 -9.6 85 85 Calm 30.42 1030 10 16.0934 0 0
5:15 am 05:15 Clear 17 -8.4 13 -10.5 85 85 E 3 6 30.42 1030 10 16.0934 0 0
5:35 am 05:35 Clear 15 -9.3 13 -10.5 91 91 E 5 7 30.42 1030 10 16.0934 0 0
5:55 am 05:55 Clear 17 -8.2 14 -10 87 87 SW 7 11 30.42 1030 10 16.0934 0 0
6:15 am 06:15 Clear 18 -8 14 -9.9 86 86 SW 3 6 30.42 1030 10 16.0934 0 0
6:35 am 06:35 Clear 18 -8 14 -9.9 86 86 Calm 30.42 1030 10 16.0934 0 0
6:55 am 06:55 Clear 17 -8.6 14 -10.1 89 89 SSW 5 7 30.42 1030 10 16.0934 0 0
7:15 am 07:15 Clear 17 -8.5 14 -10.1 88 88 S 3 6 30.42 1030 10 16.0934 0 0
7:35 am 07:35 Sunny 16 -8.8 14 -10.2 90 90 S 5 7 30.42 1030 10 16.0934 0 0
7:55 am 07:55 Sunny 17 -8.1 15 -9.6 89 89 Calm 30.42 1030 10 16.0934 0 0
8:15 am 08:15 Sunny 20 -6.9 16 -8.8 87 87 SSE 7 11 30.36 1028 10 16.0934 0 0
8:35 am 08:35 Sunny 21 -6.3 17 -8.3 86 86 S 10 17 30.36 1028 10 16.0934 0 0
8:55 am 08:55 Sunny 22 -5.3 19 -7.4 85 85 S 13 20 30.36 1028 10 16.0934 0 0
9:15 am 09:15 Sunny 23 -4.9 17 -8.2 78 78 S 12 19 30.36 1028 10 16.0934 0 0
9:35 am 09:35 Sunny 24 -4.5 17 -8.1 76 76 SSE 14 22 30.33 1027 10 16.0934 0 0
9:55 am 09:55 Sunny 26 -3.4 19 -7.4 74 74 SSE 13 20 30.33 1027 10 16.0934 0 0
10:15 am 10:15 Sunny 28 -2.4 20 -6.9 72 72 SSE 16 26 30.3 1026 10 16.0934 0 0
10:35 am 10:35 Sunny 29 -1.5 20 -6.7 68 68 SSE 17 28 30.27 1025 10 16.0934 0 0
10:55 am 10:55 Sunny 31 -0.6 20 -6.5 65 65 SSE 21 33 30.24 1024 10 16.0934 0 0
11:15 am 11:15 Sunny 32 0.1 20 -6.6 61 61 S 18 30 30.24 1024 10 16.0934 0 0
11:35 am 11:35 Sunny 34 1 20 -6.7 57 57 SSE 22 35 30.21 1023 10 16.0934 0 0
11:55 am 11:55 Sunny 35 1.8 20 -6.9 53 53 S 20 31 30.21 1023 10 16.0934 0 0
12:15 pm 12:15 Sunny 37 2.6 20 -6.5 52 52 S 20 31 30.21 1023 10 16.0934 0 0
12:35 pm 12:35 Sunny 38 3.2 20 -6.4 50 50 S 21 33 30.21 1023 10 16.0934 0 0
12:55 pm 12:55 Sunny 39 4 20 -6.4 47 47 S 23 37 30.18 1022 10 16.0934 0 0
1:10 pm 13:10 Sunny 41 4.8 21 -5.9 46 46 S 18 30 30.15 1021 10 16.0934 0 0
1:35 pm 13:35 Sunny 44 6.7 22 -5.8 41 41 S 22 35 30.15 1021 10 16.0934 0 0
1:55 pm 13:55 Sunny 46 7.6 22 -5.6 39 39 SSW 23 37 30.09 1019 10 16.0934 0 0
2:15 pm 14:15 Sunny 49 9.2 22 -5.6 35 35 S 22 35 30.06 1018 10 16.0934 0 0
2:35 pm 14:35 Sunny 50 10.2 22 -5.3 33 33 S 24 39 30.03 1017 10 16.0934 0 0
2:55 pm 14:55 Sunny 53 11.5 22 -5.6 30 30 S 23 37 30 1016 10 16.0934 0 0
3:15 pm 15:15 Sunny 54 12.1 23 -5.2 30 30 S 17 28 30 1016 10 16.0934 0 0
3:35 pm 15:35 Sunny 56 13.1 23 -5 28 28 S 17 28 29.97 1015 10 16.0934 0 0
3:55 pm 15:55 Sunny 57 13.7 23 -5 27 27 SSE 21 33 29.94 1014 10 16.0934 0 0
4:15 pm 16:15 Sunny 58 14.4 23 -5.1 26 26 SSE 18 30 29.91 1013 10 16.0934 0 0
4:35 pm 16:35 Sunny 61 16 20 -6.4 21 21 SSW 20 31 29.88 1012 10 16.0934 0 0
4:55 pm 16:55 Sunny 61 16 21 -5.9 22 22 S 21 33 29.88 1012 10 16.0934 0 0
5:15 pm 17:15 Sunny 60 15.6 20 -6.4 22 22 S 20 31 29.88 1012 10 16.0934 0 0
5:35 pm 17:35 Sunny 60 15.8 21 -6 22 22 S 16 26 29.85 1011 10 16.0934 0 0
5:55 pm 17:55 Sunny 60 15.8 21 -5.9 22 22 S 16 26 29.85 1011 10 16.0934 0 0
6:15 pm 18:15 Sunny 60 15.8 21 -5.9 22 22 SSE 20 31 29.85 1011 10 16.0934 0 0
6:35 pm 18:35 Sunny 59 15.1 22 -5.8 23 23 SSE 17 28 29.85 1011 10 16.0934 0 0
6:55 pm 18:55 Partly Cloudy 59 14.9 23 -5.1 25 25 SSE 15 24 29.88 1012 10 16.0934 0 0
7:15 pm 19:15 Partly Cloudy 56 13.6 23 -4.9 28 28 SSE 12 19 29.88 1012 10 16.0934 0 0
7:35 pm 19:35 Partly Cloudy 55 12.6 24 -4.4 31 31 SE 10 17 29.88 1012 10 16.0934 0 0
7:55 pm 19:55 Mostly Cloudy 54 12.2 24 -4.4 31 31 SE 10 17 29.88 1012 10 16.0934 0 0
8:15 pm 20:15 Mostly Cloudy 52 11 24 -4.7 33 33 SE 14 22 29.91 1013 10 16.0934 0 0
8:35 pm 20:35 Cloudy 50 9.9 24 -4.4 37 37 ESE 17 28 29.91 1013 10 16.0934 0 0
8:55 pm 20:55 Mostly Cloudy 48 8.7 25 -4 41 41 ESE 16 26 29.91 1013 10 16.0934 0 0
9:15 pm 21:15 Mostly Cloudy 46 7.8 26 -3.4 45 45 E 14 22 29.97 1015 10 16.0934 0 0
9:35 pm 21:35 Partly Cloudy 45 7.4 26 -3.5 46 46 E 12 19 29.94 1014 10 16.0934 0 0
9:55 pm 21:55 Clear 44 6.8 26 -3.3 49 49 E 12 19 29.97 1015 10 16.0934 0 0
10:15 pm 22:15 Clear 43 6 26 -3.1 52 52 ESE 14 22 29.97 1015 10 16.0934 0 0
10:35 pm 22:35 Clear 41 5.2 26 -3.3 55 55 ESE 7 11 30 1016 10 16.0934 0 0
10:55 pm 22:55 Clear 38 3.5 27 -3 63 63 E 9 15 30 1016 10 16.0934 0 0
11:15 pm 23:15 Clear 36 2.4 27 -3 68 68 E 9 15 30 1016 10 16.0934 0 0
11:35 pm 23:35 Clear 38 3.2 26 -3.5 62 62 E 8 13 30 1016 10 16.0934 0 0
11:55 pm 23:55 Clear 36 2.2 26 -3.3 67 67 ESE 9 15 30 1016 10 16.0934 0 0

Powered by AerisWeather